Terminal Aerodrome Forecast
Issued by NWS

Home | Current Version | Previous Version | Text Only | Print | Product List | Glossary On
Versions: 1 2 3 4 5 6 7 8 9 10 11 12 13 14 15 16 17 18 19 20 21
521
FTUS46 KMFR 270533
TAFLMT
TAF
KLMT 270533Z 2706/2806 26008KT 5SM -RASN SCT020 OVC035
     FM271000 23005KT P6SM SCT030 OVC050
     FM271900 31012G18KT P6SM SCT040
     FM280300 30005KT P6SM FEW040 SCT100=

USA.gov is the U.S. government's official web portal to all federal, state and local government web resources and services.